Year,Month,Day,Hour,Minute,Value (Times are PST for temperature in C)
2009,09,24,00,00,15.80
2009,09,24,00,01,15.70
2009,09,24,00,02,15.70
2009,09,24,00,03,15.70
2009,09,24,00,04,15.60
2009,09,24,00,05,15.60
2009,09,24,00,06,15.60
2009,09,24,00,07,15.60
2009,09,24,00,08,15.50
2009,09,24,00,09,15.50
2009,09,24,00,10,15.40
2009,09,24,00,11,15.40
2009,09,24,00,12,15.30
2009,09,24,00,13,15.30
2009,09,24,00,14,15.30
2009,09,24,00,15,15.20
2009,09,24,00,16,15.20
2009,09,24,00,17,15.20
2009,09,24,00,18,15.20
2009,09,24,00,19,15.20
2009,09,24,00,20,15.20
2009,09,24,00,21,15.10
2009,09,24,00,22,15.10
2009,09,24,00,23,15.10
2009,09,24,00,24,15.10
2009,09,24,00,25,15.10
2009,09,24,00,26,15.10
2009,09,24,00,27,15.10
2009,09,24,00,28,15.10
2009,09,24,00,29,15.10
2009,09,24,00,30,15.00
2009,09,24,00,31,15.00
2009,09,24,00,32,15.00
2009,09,24,00,33,15.00
2009,09,24,00,34,15.00
2009,09,24,00,35,15.00
2009,09,24,00,36,15.00
2009,09,24,00,37,14.90
2009,09,24,00,38,14.80
2009,09,24,00,39,14.70
2009,09,24,00,40,14.60
2009,09,24,00,41,14.60
2009,09,24,00,42,14.50
2009,09,24,00,43,14.50
2009,09,24,00,44,14.40
2009,09,24,00,45,14.40
2009,09,24,00,46,14.30
2009,09,24,00,47,14.30
2009,09,24,00,48,14.30
2009,09,24,00,49,14.30
2009,09,24,00,50,14.30
2009,09,24,00,51,14.30
2009,09,24,00,52,14.30
2009,09,24,00,53,14.30
2009,09,24,00,54,14.30
2009,09,24,00,55,14.30
2009,09,24,00,56,14.30
2009,09,24,00,57,14.40
2009,09,24,00,58,14.40
2009,09,24,00,59,14.40
2009,09,24,01,00,14.40
2009,09,24,01,01,14.40
2009,09,24,01,02,14.30
2009,09,24,01,03,14.30
2009,09,24,01,04,14.30
2009,09,24,01,05,14.30
2009,09,24,01,06,14.30
2009,09,24,01,07,14.30
2009,09,24,01,08,14.30
2009,09,24,01,09,14.30
2009,09,24,01,10,14.30
2009,09,24,01,11,14.30
2009,09,24,01,12,14.30
2009,09,24,01,13,14.30
2009,09,24,01,14,14.40
2009,09,24,01,15,14.40
2009,09,24,01,16,14.40
2009,09,24,01,17,14.40
2009,09,24,01,18,14.40
2009,09,24,01,19,14.40
2009,09,24,01,20,14.40
2009,09,24,01,21,14.30
2009,09,24,01,22,14.40
2009,09,24,01,23,14.40
2009,09,24,01,24,14.40
2009,09,24,01,25,14.40
2009,09,24,01,26,14.50
2009,09,24,01,27,14.50
2009,09,24,01,28,14.50
2009,09,24,01,29,14.50
2009,09,24,01,30,14.60
2009,09,24,01,31,14.60
2009,09,24,01,32,14.70
2009,09,24,01,33,14.80
2009,09,24,01,34,14.80
2009,09,24,01,35,14.80
2009,09,24,01,36,14.80
2009,09,24,01,37,14.80
2009,09,24,01,38,14.90
2009,09,24,01,39,14.90
2009,09,24,01,40,14.90
2009,09,24,01,41,14.90
2009,09,24,01,42,14.90
2009,09,24,01,43,14.90
2009,09,24,01,44,14.90
2009,09,24,01,45,15.00
2009,09,24,01,46,15.00
2009,09,24,01,47,15.00
2009,09,24,01,48,15.00
2009,09,24,01,49,15.00
2009,09,24,01,50,15.00
2009,09,24,01,51,15.00
2009,09,24,01,52,15.00
2009,09,24,01,53,15.10
2009,09,24,01,54,15.20
2009,09,24,01,55,15.30
2009,09,24,01,56,15.40
2009,09,24,01,57,15.50
2009,09,24,01,58,15.50
2009,09,24,01,59,15.60
2009,09,24,02,00,15.70
2009,09,24,02,01,15.70
2009,09,24,02,02,15.80
2009,09,24,02,03,15.80
2009,09,24,02,04,15.80
2009,09,24,02,05,15.80
2009,09,24,02,06,15.80
2009,09,24,02,07,15.80
2009,09,24,02,08,15.80
2009,09,24,02,09,15.80
2009,09,24,02,10,15.80
2009,09,24,02,11,15.80
2009,09,24,02,12,15.70
2009,09,24,02,13,15.70
2009,09,24,02,14,15.60
2009,09,24,02,15,15.60
2009,09,24,02,16,15.50
2009,09,24,02,17,15.50
2009,09,24,02,18,15.40
2009,09,24,02,19,15.30
2009,09,24,02,20,15.20
2009,09,24,02,21,15.10
2009,09,24,02,22,15.00
2009,09,24,02,23,15.00
2009,09,24,02,24,15.00
2009,09,24,02,25,15.00
2009,09,24,02,26,15.00
2009,09,24,02,27,15.00
2009,09,24,02,28,15.00
2009,09,24,02,29,14.90
2009,09,24,02,30,14.90
2009,09,24,02,31,14.80
2009,09,24,02,32,14.80
2009,09,24,02,33,14.70
2009,09,24,02,34,14.70
2009,09,24,02,35,14.60
2009,09,24,02,36,14.60
2009,09,24,02,37,14.60
2009,09,24,02,38,14.50
2009,09,24,02,39,14.50
2009,09,24,02,40,14.40
2009,09,24,02,41,14.40
2009,09,24,02,42,14.30
2009,09,24,02,43,14.30
2009,09,24,02,44,14.30
2009,09,24,02,45,14.30
2009,09,24,02,46,14.20
2009,09,24,02,47,14.20
2009,09,24,02,48,14.20
2009,09,24,02,49,14.20
2009,09,24,02,50,14.20
2009,09,24,02,51,14.20
2009,09,24,02,52,14.10
2009,09,24,02,53,14.10
2009,09,24,02,54,13.90
2009,09,24,02,55,13.80
2009,09,24,02,56,13.70
2009,09,24,02,57,13.60
2009,09,24,02,58,13.60
2009,09,24,02,59,13.50
2009,09,24,03,00,13.40
2009,09,24,03,01,13.40
2009,09,24,03,02,13.40
2009,09,24,03,03,13.30
2009,09,24,03,04,13.30
2009,09,24,03,05,13.20
2009,09,24,03,06,13.20
2009,09,24,03,07,13.10
2009,09,24,03,08,13.10
2009,09,24,03,09,13.10
2009,09,24,03,10,13.00
2009,09,24,03,11,12.90
2009,09,24,03,12,12.90
2009,09,24,03,13,12.80
2009,09,24,03,14,12.80
2009,09,24,03,15,12.80
2009,09,24,03,16,12.70
2009,09,24,03,17,12.70
2009,09,24,03,18,12.70
2009,09,24,03,19,12.60
2009,09,24,03,20,12.60
2009,09,24,03,21,12.60
2009,09,24,03,22,12.50
2009,09,24,03,23,12.50
2009,09,24,03,24,12.50
2009,09,24,03,25,12.50
2009,09,24,03,26,12.50
2009,09,24,03,27,12.50
2009,09,24,03,28,12.50
2009,09,24,03,29,12.40
2009,09,24,03,30,12.40
2009,09,24,03,31,12.40
2009,09,24,03,32,12.40
2009,09,24,03,33,12.40
2009,09,24,03,34,12.40
2009,09,24,03,35,12.30
2009,09,24,03,36,12.30
2009,09,24,03,37,12.30
2009,09,24,03,38,12.30
2009,09,24,03,39,12.30
2009,09,24,03,40,12.30
2009,09,24,03,41,12.20
2009,09,24,03,42,12.20
2009,09,24,03,43,12.20
2009,09,24,03,44,12.20
2009,09,24,03,45,12.20
2009,09,24,03,46,12.20
2009,09,24,03,47,12.20
2009,09,24,03,48,12.20
2009,09,24,03,49,12.10
2009,09,24,03,50,12.10
2009,09,24,03,51,12.10
2009,09,24,03,52,12.10
2009,09,24,03,53,12.10
2009,09,24,03,54,12.10
2009,09,24,03,55,12.10
2009,09,24,03,56,12.00
2009,09,24,03,57,12.00
2009,09,24,03,58,12.00
2009,09,24,03,59,12.00
2009,09,24,04,00,12.00
2009,09,24,04,01,11.90
2009,09,24,04,02,11.90
2009,09,24,04,03,11.90
2009,09,24,04,04,11.90
2009,09,24,04,05,11.90
2009,09,24,04,06,11.90
2009,09,24,04,07,11.90
2009,09,24,04,08,11.90
2009,09,24,04,09,11.90
2009,09,24,04,10,11.90
2009,09,24,04,11,11.90
2009,09,24,04,12,11.90
2009,09,24,04,13,11.90
2009,09,24,04,14,11.90
2009,09,24,04,15,11.90
2009,09,24,04,16,11.90
2009,09,24,04,17,11.90
2009,09,24,04,18,11.90
2009,09,24,04,19,11.90
2009,09,24,04,20,11.90
2009,09,24,04,21,11.90
2009,09,24,04,22,11.90
2009,09,24,04,23,11.90
2009,09,24,04,24,11.90
2009,09,24,04,25,11.90
2009,09,24,04,26,11.90
2009,09,24,04,27,11.90
2009,09,24,04,28,11.90
2009,09,24,04,29,11.80
2009,09,24,04,30,11.80
2009,09,24,04,31,11.80
2009,09,24,04,32,11.80
2009,09,24,04,33,11.80
2009,09,24,04,34,11.80
2009,09,24,04,35,11.80
2009,09,24,04,36,11.70
2009,09,24,04,37,11.70
2009,09,24,04,38,11.70
2009,09,24,04,39,11.70
2009,09,24,04,40,11.70
2009,09,24,04,41,11.70
2009,09,24,04,42,11.70
2009,09,24,04,43,11.70
2009,09,24,04,44,11.70
2009,09,24,04,45,11.70
2009,09,24,04,46,11.60
2009,09,24,04,47,11.60
2009,09,24,04,48,11.60
2009,09,24,04,49,11.60
2009,09,24,04,50,11.60
2009,09,24,04,51,11.60
2009,09,24,04,52,11.60
2009,09,24,04,53,11.60
2009,09,24,04,54,11.60
2009,09,24,04,55,11.60
2009,09,24,04,56,11.60
2009,09,24,04,57,11.60
2009,09,24,04,58,11.60
2009,09,24,04,59,11.60
2009,09,24,05,00,11.60
2009,09,24,05,01,11.60
2009,09,24,05,02,11.60
2009,09,24,05,03,11.60
2009,09,24,05,04,11.60
2009,09,24,05,05,11.60
2009,09,24,05,06,11.60
2009,09,24,05,07,11.50
2009,09,24,05,08,11.50
2009,09,24,05,09,11.50
2009,09,24,05,10,11.50
2009,09,24,05,11,11.50
2009,09,24,05,12,11.50
2009,09,24,05,13,11.50
2009,09,24,05,14,11.50
2009,09,24,05,15,11.50
2009,09,24,05,16,11.60
2009,09,24,05,17,11.50
2009,09,24,05,18,11.60
2009,09,24,05,19,11.60
2009,09,24,05,20,11.60
2009,09,24,05,21,11.60
2009,09,24,05,22,11.60
2009,09,24,05,23,11.60
2009,09,24,05,24,11.60
2009,09,24,05,25,11.60
2009,09,24,05,26,11.60
2009,09,24,05,27,11.60
2009,09,24,05,28,11.60
2009,09,24,05,29,11.60
2009,09,24,05,30,11.60
2009,09,24,05,31,11.60
2009,09,24,05,32,11.60
2009,09,24,05,33,11.60
2009,09,24,05,34,11.60
2009,09,24,05,35,11.60
2009,09,24,05,36,11.60
2009,09,24,05,37,11.60
2009,09,24,05,38,11.60
2009,09,24,05,39,11.60
2009,09,24,05,40,11.50
2009,09,24,05,41,11.50
2009,09,24,05,42,11.50
2009,09,24,05,43,11.50
2009,09,24,05,44,11.50
2009,09,24,05,45,11.50
2009,09,24,05,46,11.50
2009,09,24,05,47,11.50
2009,09,24,05,48,11.40
2009,09,24,05,49,11.40
2009,09,24,05,50,11.40
2009,09,24,05,51,11.40
2009,09,24,05,52,11.40
2009,09,24,05,53,11.40
2009,09,24,05,54,11.40
2009,09,24,05,55,11.40
2009,09,24,05,56,11.40
2009,09,24,05,57,11.40
2009,09,24,05,58,11.40
2009,09,24,05,59,11.40
2009,09,24,06,00,11.40
2009,09,24,06,01,11.40
2009,09,24,06,02,11.40
2009,09,24,06,03,11.40
2009,09,24,06,04,11.40
2009,09,24,06,05,11.40
2009,09,24,06,06,11.40
2009,09,24,06,07,11.40
2009,09,24,06,08,11.40
2009,09,24,06,09,11.40
2009,09,24,06,10,11.40
2009,09,24,06,11,11.40
2009,09,24,06,12,11.40
2009,09,24,06,13,11.40
2009,09,24,06,14,11.30
2009,09,24,06,15,11.30
2009,09,24,06,16,11.30
2009,09,24,06,17,11.30
2009,09,24,06,18,11.30
2009,09,24,06,19,11.30
2009,09,24,06,20,11.30
2009,09,24,06,21,11.30
2009,09,24,06,22,11.30
2009,09,24,06,23,11.20
2009,09,24,06,24,11.20
2009,09,24,06,25,11.20
2009,09,24,06,26,11.20
2009,09,24,06,27,11.20
2009,09,24,06,28,11.20
2009,09,24,06,29,11.20
2009,09,24,06,30,11.20
2009,09,24,06,31,11.20
2009,09,24,06,32,11.10
2009,09,24,06,33,11.10
2009,09,24,06,34,11.10
2009,09,24,06,35,11.10
2009,09,24,06,36,11.10
2009,09,24,06,37,11.10
2009,09,24,06,38,11.10
2009,09,24,06,39,11.10
2009,09,24,06,40,11.10
2009,09,24,06,41,11.10
2009,09,24,06,42,11.10
2009,09,24,06,43,11.10
2009,09,24,06,44,11.00
2009,09,24,06,45,11.00
2009,09,24,06,46,11.00
2009,09,24,06,47,11.00
2009,09,24,06,48,11.00
2009,09,24,06,49,11.00
2009,09,24,06,50,11.00
2009,09,24,06,51,11.00
2009,09,24,06,52,11.00
2009,09,24,06,53,11.00
2009,09,24,06,54,11.00
2009,09,24,06,55,11.00
2009,09,24,06,56,10.90
2009,09,24,06,57,10.90
2009,09,24,06,58,10.90
2009,09,24,06,59,10.90
2009,09,24,07,00,10.90
2009,09,24,07,01,10.90
2009,09,24,07,02,10.90
2009,09,24,07,03,10.90
2009,09,24,07,04,10.90
2009,09,24,07,05,10.90
2009,09,24,07,06,10.90
2009,09,24,07,07,10.90
2009,09,24,07,08,10.90
2009,09,24,07,09,10.90
2009,09,24,07,10,10.90
2009,09,24,07,11,10.90
2009,09,24,07,12,10.90
2009,09,24,07,13,10.90
2009,09,24,07,14,10.90
2009,09,24,07,15,10.90
2009,09,24,07,16,10.90
2009,09,24,07,17,10.90
2009,09,24,07,18,10.90
2009,09,24,07,19,10.90
2009,09,24,07,20,10.90
2009,09,24,07,21,10.90
2009,09,24,07,22,10.90
2009,09,24,07,23,10.90
2009,09,24,07,24,10.90
2009,09,24,07,25,10.90
2009,09,24,07,26,10.90
2009,09,24,07,27,10.90
2009,09,24,07,28,10.90
2009,09,24,07,29,10.90
2009,09,24,07,30,10.90
2009,09,24,07,31,10.90
2009,09,24,07,32,10.90
2009,09,24,07,33,11.00
2009,09,24,07,34,11.00
2009,09,24,07,35,11.00
2009,09,24,07,36,11.00
2009,09,24,07,37,11.00
2009,09,24,07,38,11.10
2009,09,24,07,39,11.10
2009,09,24,07,40,11.10
2009,09,24,07,41,11.20
2009,09,24,07,42,11.20
2009,09,24,07,43,11.20
2009,09,24,07,44,11.20
2009,09,24,07,45,11.20
2009,09,24,07,46,11.20
2009,09,24,07,47,11.20
2009,09,24,07,48,11.30
2009,09,24,07,49,11.30
2009,09,24,07,50,11.30
2009,09,24,07,51,11.30
2009,09,24,07,52,11.40
2009,09,24,07,53,11.40
2009,09,24,07,54,11.40
2009,09,24,07,55,11.50
2009,09,24,07,56,11.50
2009,09,24,07,57,11.50
2009,09,24,07,58,11.60
2009,09,24,07,59,11.60
2009,09,24,08,00,11.60
2009,09,24,08,01,11.70
2009,09,24,08,02,11.70
2009,09,24,08,03,11.70
2009,09,24,08,04,11.80
2009,09,24,08,05,11.80
2009,09,24,08,06,11.90
2009,09,24,08,07,11.90
2009,09,24,08,08,11.90
2009,09,24,08,09,12.00
2009,09,24,08,10,12.00
2009,09,24,08,11,12.10
2009,09,24,08,12,12.10
2009,09,24,08,13,12.20
2009,09,24,08,14,12.20
2009,09,24,08,15,12.30
2009,09,24,08,16,12.40
2009,09,24,08,17,12.50
2009,09,24,08,18,12.60
2009,09,24,08,19,12.70
2009,09,24,08,20,12.70
2009,09,24,08,21,12.70
2009,09,24,08,22,12.70
2009,09,24,08,23,12.70
2009,09,24,08,24,12.70
2009,09,24,08,25,12.70
2009,09,24,08,26,12.80
2009,09,24,08,27,12.80
2009,09,24,08,28,12.80
2009,09,24,08,29,12.90
2009,09,24,08,30,12.90
2009,09,24,08,31,12.90
2009,09,24,08,32,13.00
2009,09,24,08,33,13.00
2009,09,24,08,34,13.10
2009,09,24,08,35,13.10
2009,09,24,08,36,13.20
2009,09,24,08,37,13.20
2009,09,24,08,38,13.30
2009,09,24,08,39,13.30
2009,09,24,08,40,13.40
2009,09,24,08,41,13.50
2009,09,24,08,42,13.60
2009,09,24,08,43,13.70
2009,09,24,08,44,13.80
2009,09,24,08,45,14.00
2009,09,24,08,46,14.10
2009,09,24,08,47,14.20
2009,09,24,08,48,14.20
2009,09,24,08,49,14.30
2009,09,24,08,50,14.30
2009,09,24,08,51,14.30
2009,09,24,08,52,14.40
2009,09,24,08,53,14.50
2009,09,24,08,54,14.50
2009,09,24,08,55,14.60
2009,09,24,08,56,14.70
2009,09,24,08,57,14.70
2009,09,24,08,58,14.70
2009,09,24,08,59,14.80
2009,09,24,09,00,14.90
2009,09,24,09,01,15.00
2009,09,24,09,02,15.00
2009,09,24,09,03,15.20
2009,09,24,09,04,15.40
2009,09,24,09,05,15.40
2009,09,24,09,06,15.50
2009,09,24,09,07,15.60
2009,09,24,09,08,15.60
2009,09,24,09,09,15.70
2009,09,24,09,10,15.70
2009,09,24,09,11,15.70
2009,09,24,09,12,15.80
2009,09,24,09,13,15.80
2009,09,24,09,14,15.90
2009,09,24,09,15,16.00
2009,09,24,09,16,16.00
2009,09,24,09,17,16.10
2009,09,24,09,18,16.10
2009,09,24,09,19,16.10
2009,09,24,09,20,16.10
2009,09,24,09,21,16.20
2009,09,24,09,22,16.20
2009,09,24,09,23,16.10
2009,09,24,09,24,16.00
2009,09,24,09,25,16.00
2009,09,24,09,26,15.90
2009,09,24,09,27,15.80
2009,09,24,09,28,15.80
2009,09,24,09,29,15.80
2009,09,24,09,30,15.90
2009,09,24,09,31,16.00
2009,09,24,09,32,16.00
2009,09,24,09,33,16.10
2009,09,24,09,34,16.10
2009,09,24,09,35,16.20
2009,09,24,09,36,16.20
2009,09,24,09,37,16.20
2009,09,24,09,38,16.20
2009,09,24,09,39,16.30
2009,09,24,09,40,16.30
2009,09,24,09,41,16.30
2009,09,24,09,42,16.30
2009,09,24,09,43,16.30
2009,09,24,09,44,16.40
2009,09,24,09,45,16.40
2009,09,24,09,46,16.50
2009,09,24,09,47,16.60
2009,09,24,09,48,16.70
2009,09,24,09,49,16.80
2009,09,24,09,50,16.90
2009,09,24,09,51,17.00
2009,09,24,09,52,17.00
2009,09,24,09,53,17.10
2009,09,24,09,54,17.20
2009,09,24,09,55,17.20
2009,09,24,09,56,17.20
2009,09,24,09,57,17.20
2009,09,24,09,58,17.20
2009,09,24,09,59,17.20
2009,09,24,10,00,17.20
2009,09,24,10,01,17.20
2009,09,24,10,02,17.20
2009,09,24,10,03,17.20
2009,09,24,10,04,17.10
2009,09,24,10,05,17.10
2009,09,24,10,06,17.20
2009,09,24,10,07,17.10
2009,09,24,10,08,17.00
2009,09,24,10,09,16.90
2009,09,24,10,10,16.80
2009,09,24,10,11,16.80
2009,09,24,10,12,16.80
2009,09,24,10,13,16.80
2009,09,24,10,14,16.80
2009,09,24,10,15,16.80
2009,09,24,10,16,16.70
2009,09,24,10,17,16.70
2009,09,24,10,18,16.60
2009,09,24,10,19,16.60
2009,09,24,10,20,16.60
2009,09,24,10,21,16.60
2009,09,24,10,22,16.60
2009,09,24,10,23,16.70
2009,09,24,10,24,16.80
2009,09,24,10,25,16.80
2009,09,24,10,26,16.90
2009,09,24,10,27,16.90
2009,09,24,10,28,16.90
2009,09,24,10,29,16.90
2009,09,24,10,30,16.90
2009,09,24,10,31,17.00
2009,09,24,10,32,17.10
2009,09,24,10,33,17.20
2009,09,24,10,34,17.30
2009,09,24,10,35,17.30
2009,09,24,10,36,17.30
2009,09,24,10,37,17.40
2009,09,24,10,38,17.30
2009,09,24,10,39,17.30
2009,09,24,10,40,17.30
2009,09,24,10,41,17.20
2009,09,24,10,42,17.10
2009,09,24,10,43,16.90
2009,09,24,10,44,16.80
2009,09,24,10,45,16.80
2009,09,24,10,46,16.80
2009,09,24,10,47,16.80
2009,09,24,10,48,16.90
2009,09,24,10,49,17.00
2009,09,24,10,50,17.00
2009,09,24,10,51,17.10
2009,09,24,10,52,17.10
2009,09,24,10,53,17.10
2009,09,24,10,54,17.20
2009,09,24,10,55,17.20
2009,09,24,10,56,17.20
2009,09,24,10,57,17.20
2009,09,24,10,58,17.30
2009,09,24,10,59,17.30
2009,09,24,11,00,17.30
2009,09,24,11,01,17.30
2009,09,24,11,02,17.30
2009,09,24,11,03,17.30
2009,09,24,11,04,17.40
2009,09,24,11,05,17.50
2009,09,24,11,06,17.50
2009,09,24,11,07,17.60
2009,09,24,11,08,17.60
2009,09,24,11,09,17.70
2009,09,24,11,10,17.80
2009,09,24,11,11,17.80
2009,09,24,11,12,17.80
2009,09,24,11,13,17.90
2009,09,24,11,14,17.90
2009,09,24,11,15,17.90
2009,09,24,11,16,18.00
2009,09,24,11,17,18.10
2009,09,24,11,18,18.10
2009,09,24,11,19,18.20
2009,09,24,11,20,18.20
2009,09,24,11,21,18.30
2009,09,24,11,22,18.30
2009,09,24,11,23,18.30
2009,09,24,11,24,18.20
2009,09,24,11,25,18.10
2009,09,24,11,26,18.10
2009,09,24,11,27,18.20
2009,09,24,11,28,18.20
2009,09,24,11,29,18.20
2009,09,24,11,30,18.10
2009,09,24,11,31,18.00
2009,09,24,11,32,17.80
2009,09,24,11,33,17.70
2009,09,24,11,34,17.70
2009,09,24,11,35,17.70
2009,09,24,11,36,17.70
2009,09,24,11,37,17.60
2009,09,24,11,38,17.70
2009,09,24,11,39,17.70
2009,09,24,11,40,17.60
2009,09,24,11,41,17.60
2009,09,24,11,42,17.50
2009,09,24,11,43,17.40
2009,09,24,11,44,17.40
2009,09,24,11,45,17.40
2009,09,24,11,46,17.40
2009,09,24,11,47,17.50
2009,09,24,11,48,17.60
2009,09,24,11,49,17.70
2009,09,24,11,50,17.80
2009,09,24,11,51,17.80
2009,09,24,11,52,17.70
2009,09,24,11,53,17.70
2009,09,24,11,54,17.70
2009,09,24,11,55,17.70
2009,09,24,11,56,17.80
2009,09,24,11,57,17.80
2009,09,24,11,58,17.80
2009,09,24,11,59,17.80
2009,09,24,12,00,17.80
2009,09,24,12,01,17.70
2009,09,24,12,02,17.60
2009,09,24,12,03,17.60
2009,09,24,12,04,17.50
2009,09,24,12,05,17.50
2009,09,24,12,06,17.60
2009,09,24,12,07,17.60
2009,09,24,12,08,17.70
2009,09,24,12,09,17.70
2009,09,24,12,10,17.70
2009,09,24,12,11,17.70
2009,09,24,12,12,17.80
2009,09,24,12,13,17.90
2009,09,24,12,14,18.00
2009,09,24,12,15,18.10
2009,09,24,12,16,18.20
2009,09,24,12,17,18.20
2009,09,24,12,18,18.20
2009,09,24,12,19,18.20
2009,09,24,12,20,18.20
2009,09,24,12,21,18.20
2009,09,24,12,22,18.10
2009,09,24,12,23,18.10
2009,09,24,12,24,18.10
2009,09,24,12,25,18.00
2009,09,24,12,26,18.00
2009,09,24,12,27,18.00
2009,09,24,12,28,18.10
2009,09,24,12,29,18.10
2009,09,24,12,30,18.20
2009,09,24,12,31,18.30
2009,09,24,12,32,18.30
2009,09,24,12,33,18.30
2009,09,24,12,34,18.20
2009,09,24,12,35,18.20
2009,09,24,12,36,18.10
2009,09,24,12,37,18.10
2009,09,24,12,38,18.10
2009,09,24,12,39,18.10
2009,09,24,12,40,18.20
2009,09,24,12,41,18.20
2009,09,24,12,42,18.30
2009,09,24,12,43,18.30
2009,09,24,12,44,18.40
2009,09,24,12,45,18.40
2009,09,24,12,46,18.40
2009,09,24,12,47,18.30
2009,09,24,12,48,18.30
2009,09,24,12,49,18.30
2009,09,24,12,50,18.30
2009,09,24,12,51,18.40
2009,09,24,12,52,18.50
2009,09,24,12,53,18.60
2009,09,24,12,54,18.70
2009,09,24,12,55,18.60
2009,09,24,12,56,18.60
2009,09,24,12,57,18.50
2009,09,24,12,58,18.50
2009,09,24,12,59,18.40
2009,09,24,13,00,18.50
2009,09,24,13,01,18.60
2009,09,24,13,02,18.60
2009,09,24,13,03,18.70
2009,09,24,13,04,18.70
2009,09,24,13,05,18.80
2009,09,24,13,06,18.90
2009,09,24,13,07,19.00
2009,09,24,13,08,19.00
2009,09,24,13,09,19.10
2009,09,24,13,10,19.10
2009,09,24,13,11,19.10
2009,09,24,13,12,19.10
2009,09,24,13,13,19.10
2009,09,24,13,14,19.10
2009,09,24,13,15,19.20
2009,09,24,13,16,19.20
2009,09,24,13,17,19.20
2009,09,24,13,18,19.30
2009,09,24,13,19,19.30
2009,09,24,13,20,19.40
2009,09,24,13,21,19.50
2009,09,24,13,22,19.60
2009,09,24,13,23,19.60
2009,09,24,13,24,19.60
2009,09,24,13,25,19.70
2009,09,24,13,26,19.80
2009,09,24,13,27,19.90
2009,09,24,13,28,19.90
2009,09,24,13,29,19.80
2009,09,24,13,30,19.80
2009,09,24,13,31,19.70
2009,09,24,13,32,19.80
2009,09,24,13,33,19.70
2009,09,24,13,34,19.60
2009,09,24,13,35,19.60
2009,09,24,13,36,19.50
2009,09,24,13,37,19.60
2009,09,24,13,38,19.60
2009,09,24,13,39,19.70
2009,09,24,13,40,19.80
2009,09,24,13,41,19.80
2009,09,24,13,42,19.80
2009,09,24,13,43,19.80
2009,09,24,13,44,19.90
2009,09,24,13,45,19.90
2009,09,24,13,46,20.00
2009,09,24,13,47,20.00
2009,09,24,13,48,20.00
2009,09,24,13,49,20.00
2009,09,24,13,50,20.10
2009,09,24,13,51,20.10
2009,09,24,13,52,20.20
2009,09,24,13,53,20.20
2009,09,24,13,54,20.20
2009,09,24,13,55,20.10
2009,09,24,13,56,20.00
2009,09,24,13,57,20.00
2009,09,24,13,58,20.00
2009,09,24,13,59,20.10
2009,09,24,14,00,20.10
2009,09,24,14,01,20.20
2009,09,24,14,02,20.20
2009,09,24,14,03,20.30
2009,09,24,14,04,20.30
2009,09,24,14,05,20.30
2009,09,24,14,06,20.30
2009,09,24,14,07,20.40
2009,09,24,14,08,20.40
2009,09,24,14,09,20.50
2009,09,24,14,10,20.40
2009,09,24,14,11,20.40
2009,09,24,14,12,20.40
2009,09,24,14,13,20.40
2009,09,24,14,14,20.50
2009,09,24,14,15,20.40
2009,09,24,14,16,20.40
2009,09,24,14,17,20.40
2009,09,24,14,18,20.40
2009,09,24,14,19,20.40
2009,09,24,14,20,20.50
2009,09,24,14,21,20.50
2009,09,24,14,22,20.60
2009,09,24,14,23,20.60
2009,09,24,14,24,20.60
2009,09,24,14,25,20.60
2009,09,24,14,26,20.70
2009,09,24,14,27,20.70
2009,09,24,14,28,20.70
2009,09,24,14,29,20.70
2009,09,24,14,30,20.60
2009,09,24,14,31,20.50
2009,09,24,14,32,20.40
2009,09,24,14,33,20.30
2009,09,24,14,34,20.20
2009,09,24,14,35,20.10
2009,09,24,14,36,19.90
2009,09,24,14,37,19.80
2009,09,24,14,38,19.80
2009,09,24,14,39,19.80
2009,09,24,14,40,19.80
2009,09,24,14,41,19.80
2009,09,24,14,42,19.80
2009,09,24,14,43,19.80
2009,09,24,14,44,19.70
2009,09,24,14,45,19.70
2009,09,24,14,46,19.70
2009,09,24,14,47,19.70
2009,09,24,14,48,19.70
2009,09,24,14,49,19.70
2009,09,24,14,50,19.80
2009,09,24,14,51,19.80
2009,09,24,14,52,19.90
2009,09,24,14,53,20.10
2009,09,24,14,54,20.20
2009,09,24,14,55,20.20
2009,09,24,14,56,20.10
2009,09,24,14,57,20.20
2009,09,24,14,58,20.20
2009,09,24,14,59,20.20
2009,09,24,15,00,20.20
2009,09,24,15,01,20.20
2009,09,24,15,02,20.20
2009,09,24,15,03,20.20
2009,09,24,15,04,20.20
2009,09,24,15,05,20.20
2009,09,24,15,06,20.20
2009,09,24,15,07,20.10
2009,09,24,15,08,20.10
2009,09,24,15,09,20.20
2009,09,24,15,10,20.20
2009,09,24,15,11,20.30
2009,09,24,15,12,20.30
2009,09,24,15,13,20.30
2009,09,24,15,14,20.30
2009,09,24,15,15,20.30
2009,09,24,15,16,20.30
2009,09,24,15,17,20.30
2009,09,24,15,18,20.30
2009,09,24,15,19,20.20
2009,09,24,15,20,20.20
2009,09,24,15,21,20.10
2009,09,24,15,22,20.00
2009,09,24,15,23,19.90
2009,09,24,15,24,19.80
2009,09,24,15,25,19.70
2009,09,24,15,26,19.70
2009,09,24,15,27,19.70
2009,09,24,15,28,19.80
2009,09,24,15,29,19.90
2009,09,24,15,30,20.00
2009,09,24,15,31,20.00
2009,09,24,15,32,20.10
2009,09,24,15,33,20.20
2009,09,24,15,34,20.20
2009,09,24,15,35,20.30
2009,09,24,15,36,20.20
2009,09,24,15,37,20.30
2009,09,24,15,38,20.30
2009,09,24,15,39,20.30
2009,09,24,15,40,20.40
2009,09,24,15,41,20.40
2009,09,24,15,42,20.40
2009,09,24,15,43,20.40
2009,09,24,15,44,20.50
2009,09,24,15,45,20.50
2009,09,24,15,46,20.50
2009,09,24,15,47,20.60
2009,09,24,15,48,20.60
2009,09,24,15,49,20.60
2009,09,24,15,50,20.70
2009,09,24,15,51,20.70
2009,09,24,15,52,20.70
2009,09,24,15,53,20.70
2009,09,24,15,54,20.60
2009,09,24,15,55,20.60
2009,09,24,15,56,20.60
2009,09,24,15,57,20.60
2009,09,24,15,58,20.60
2009,09,24,15,59,20.60
2009,09,24,16,00,20.60
2009,09,24,16,01,20.60
2009,09,24,16,02,20.60
2009,09,24,16,03,20.60
2009,09,24,16,04,20.60
2009,09,24,16,05,20.60
2009,09,24,16,06,20.60
2009,09,24,16,07,20.60
2009,09,24,16,08,20.60
2009,09,24,16,09,20.60
2009,09,24,16,10,20.70
2009,09,24,16,11,20.70
2009,09,24,16,12,20.70
2009,09,24,16,13,20.70
2009,09,24,16,14,20.70
2009,09,24,16,15,20.70
2009,09,24,16,16,20.70
2009,09,24,16,17,20.70
2009,09,24,16,18,20.70
2009,09,24,16,19,20.70
2009,09,24,16,20,20.70
2009,09,24,16,21,20.60
2009,09,24,16,22,20.60
2009,09,24,16,23,20.60
2009,09,24,16,24,20.60
2009,09,24,16,25,20.60
2009,09,24,16,26,20.70
2009,09,24,16,27,20.70
2009,09,24,16,28,20.60
2009,09,24,16,29,20.60
2009,09,24,16,30,20.60
2009,09,24,16,31,20.60
2009,09,24,16,32,20.50
2009,09,24,16,33,20.50
2009,09,24,16,34,20.40
2009,09,24,16,35,20.30
2009,09,24,16,36,20.30
2009,09,24,16,37,20.10
2009,09,24,16,38,20.00
2009,09,24,16,39,19.90
2009,09,24,16,40,19.80
2009,09,24,16,41,19.80
2009,09,24,16,42,19.70
2009,09,24,16,43,19.60
2009,09,24,16,44,19.50
2009,09,24,16,45,19.50
2009,09,24,16,46,19.50
2009,09,24,16,47,19.50
2009,09,24,16,48,19.50
2009,09,24,16,49,19.40
2009,09,24,16,50,19.40
2009,09,24,16,51,19.40
2009,09,24,16,52,19.40
2009,09,24,16,53,19.40
2009,09,24,16,54,19.40
2009,09,24,16,55,19.30
2009,09,24,16,56,19.20
2009,09,24,16,57,19.10
2009,09,24,16,58,19.00
2009,09,24,16,59,19.00
2009,09,24,17,00,18.90
2009,09,24,17,01,18.90
2009,09,24,17,02,19.00
2009,09,24,17,03,19.00
2009,09,24,17,04,19.00
2009,09,24,17,05,19.10
2009,09,24,17,06,19.10
2009,09,24,17,07,19.20
2009,09,24,17,08,19.20
2009,09,24,17,09,19.10
2009,09,24,17,10,19.10
2009,09,24,17,11,19.10
2009,09,24,17,12,19.10
2009,09,24,17,13,19.00
2009,09,24,17,14,19.00
2009,09,24,17,15,18.90
2009,09,24,17,16,18.90
2009,09,24,17,17,18.80
2009,09,24,17,18,18.70
2009,09,24,17,19,18.50